Regional Weather Roundup
Issued by NWS

Current Version | Previous Version | Text Only | Print | Product List | Glossary On
Versions: 1 2 3 4 5 6 7 8 9 10 11 12 13 14 15 16 17 18 19 20 21 22 23 24 25 26 27 28 29 30 31 32 33 34 35 36 37 38 39 40 41 42 43 44 45 46 47 48 49 50
000
ASUS46 KSEW 271610
RWRWA

WASHINGTON REGIONAL WEATHER ROUNDUP
NATIONAL WEATHER SERVICE SEATTLE WA
800 AM PST FRI FEB 27 2015

NOTE:"FAIR" INDICATES FEW OR NO CLOUDS BELOW 12,000 FEET WITH NO
SIGNIFICANT WEATHER AND/OR OBSTRUCTIONS TO VISIBILITY.

WAZ505-507>509-271700-
SEATTLE, TACOMA, EVERETT, AND VICINITY

CITY           SKY/WX    TMP DP  RH WIND       PRES   REMARKS
EVERETT        LGT RAIN  44  42  93 NE6       29.75R FOG
BOEING FIELD   CLOUDY    49  44  83 NE5       29.73R
RENTON         LGT RAIN  47  32  56 CALM      29.73R
SEATAC AIRPORT LGT RAIN  47  44  90 E5        29.73R
JBLM-MCCHORD   CLOUDY    46  46 100 E2        29.72R
PUYALLUP       DRIZZLE   46  46 100 CALM      29.71S
BREMERTON      CLOUDY    45  45 100 NE7       29.75R
JBLM-FT LEWIS  DRIZZLE   46  45  99 E2        29.71R
TACOMA NARROWS LGT RAIN  46  44  93 NE3       29.72R
$$

WAZ001-503-506-510-514-515-271700-
NORTH INTERIOR

CITY           SKY/WX    TMP DP  RH WIND       PRES   REMARKS
BELLINGHAM     LGT RAIN  43  39  86 NW5       29.77R
FRIDAY HARBOR  LGT RAIN  45  43  93 VRB6      29.79R
EASTSOUND      CLOUDY    46  45  93 N16       29.77R
PORT ANGELES   LGT RAIN  45  43  93 NE8       29.77R FOG
NAS WHIDBEY    LGT RAIN  47  44  90 N6        29.78R
ARLINGTON      CLOUDY    45  41  87 N6        29.78R
BURLINGTON     CLOUDY    45  45 100 NW6       29.78R
$$

WAZ020-022-039-040-504-511-512-271700-
SOUTHWEST INTERIOR

CITY           SKY/WX    TMP DP  RH WIND       PRES   REMARKS
SHELTON        CLOUDY    45  43  93 N6        29.69S
OLYMPIA        CLOUDY    46  44  93 N5        29.71R
CHEHALIS       CLOUDY    46  46 100 CALM      29.71S
KELSO          CLOUDY    48  45  87 CALM      29.76R
VANCOUVER      CLOUDY    48  45  89 VRB3      29.73S
SCAPPOOSE, OR  LGT RAIN  46  45  96 W3        29.72S
PORTLAND, OR   CLOUDY    47  46  97 SE6       29.74S
$$

WAZ021-516-517-271700-
WASHINGTON COAST

CITY           SKY/WX    TMP DP  RH WIND       PRES   REMARKS
FORKS          CLOUDY    45  42  89 NE9       29.71R
HOQUIAM        LGT RAIN  48  47  96 E7        29.69S FOG
ASTORIA, OR    CLOUDY    47  45  93 SE5       29.71S
$$

WAZ019-023-024-040-518-519-271700-
CASCADE MOUNTAINS AND COLUMBIA GORGE

CITY           SKY/WX    TMP DP  RH WIND       PRES   REMARKS
TROUTDALE, OR  CLOUDY    48  45  89 SW7       29.73R
THE DALLES, OR CLOUDY    45  43  93 E5        29.73R
$$

WAZ026-027-041>044-520-521-271700-
EAST SLOPES

CITY           SKY/WX    TMP DP  RH WIND       PRES   REMARKS
OMAK           CLOUDY    39  29  67 N7        29.85R
WENATCHEE      RAIN      39  35  86 W6        29.83R FOG
ELLENSBURG     LGT RAIN  40  36  86 NW6       29.76R FOG
YAKIMA         LGT RAIN  40  38  93 N8        29.76S
$$

WAZ028-034-035-271700-
COLUMBIA BASIN

CITY           SKY/WX    TMP DP  RH WIND       PRES   REMARKS
EPHRATA        CLOUDY    40  32  73 N12       29.80S
MOSES LAKE     CLOUDY    38  32  79 NE8       29.81R
PASCO          CLOUDY    41  37  86 N8        29.79R
HERMISTON, OR  CLOUDY    44  37  76 NE6       29.73S
$$

WAZ036>038-271700-
NORTHEAST WASHINGTON

CITY           SKY/WX    TMP DP  RH WIND       PRES   REMARKS
SPOKANE GEIGER MOSUNNY   31  28  89 NE7       29.81S
SPOKANE FELTS  MOSUNNY   30  27  88 CALM      29.84S
FAIRCHILD AFB  SUNNY     31  30  97 NE10      29.80S WCI  22
COEURDALENE,ID SUNNY     32  27  80 N13       29.83S WCI  22
DEER PARK      MOSUNNY   34  28  79 NE10      29.84R WCI  26
$$

WAZ029>033-271700-
SOUTHEAST WASHINGTON

CITY           SKY/WX    TMP DP  RH WIND       PRES   REMARKS
PULLMAN        MOSUNNY   36  29  75 E10       29.78F
LEWISTON, ID   MOSUNNY   36  34  92 SE3       29.80S
WALLA WALLA    CLOUDY    44  36  73 NW3       29.73S
PENDLETON, OR  CLOUDY    42  36  79 E9        29.71S
$$



USA.gov is the U.S. government's official web portal to all federal, state and local government web resources and services.